[[{"header":{"parameterUnit":"m.s-1","parameterCategory":1,"la1":30.2991,"la2":30.254,"lo1":-89.0895,"lo2":-89.0444,"dy":0.0017,"dx":0.0017,"nx":28,"ny":28,"refTime":"2025-07-17T21:00:00:Z","depth":0,"parameterNumber":2,"parameterNumberName":"U-component_of_WINDS"},"data":[0,0,0,0,0,0,0,0,0,0,0,0,0,0,0,0,0,0,0,0,0,0,0,0,0,0,0,0,0,0,0,0,0,0,0,0,0,0,0,0,0,0,0,0,0,0,0,0,0,0,0,0,0,0,0,0,0,0,0.8878,0.8877,0,0.8796,0.8795,0.8794,0.869,0.8689,0.8687,0.8685,0.8603,0.8603,0.8602,0,0,0,0,0,0,0,0,0,0,0,0,0,0.8946,0.8946,0.8878,0.8877,0.8876,0.8796,0.8795,0.8794,0.8691,0.8689,0.8687,0.8685,0.8604,0.8603,0.8602,0,0,0,0,0,0,0,0,0,0,0,0,0,0.8896,0.8945,0.8878,0.8815,0.8808,0.8796,0.8795,0.8793,0.8691,0.8688,0.8686,0.8684,0.8604,0.8603,0.8602,0.8646,0,0,0.8599,0.8599,0,0,0,0,0,0,0,0,0.8899,0.8893,0.8825,0.8819,0.8812,0.8751,0.8789,0.8744,0.8692,0.8736,0.8685,0.8682,0.8655,0.8649,0.8639,0.8642,0.8639,0.8599,0.8598,0.8598,0.8598,0,0,0,0,0,0,0,0.8902,0.8896,0.8845,0.8824,0.8816,0.8791,0.8781,0.878,0.871,0.8732,0.8724,0.8715,0.865,0.8641,0.8637,0.8637,0.8599,0.8598,0.8598,0.8597,0.8669,0.8672,0,0,0,0,0,0,0.8915,0.89,0.8848,0.8843,0.885,0.8791,0.878,0.8773,0.871,0.8698,0.8718,0.8711,0.8643,0.8638,0.8633,0.8679,0.8598,0.8597,0.8597,0.8667,0.867,0.8673,0,0,0,0,0,0,0.8917,0.8912,0.8851,0.8869,0.886,0.8793,0.8785,0.8773,0.8762,0.8699,0.8686,0.872,0.8641,0.8635,0.8643,0.8675,0.8597,0.8596,0.8664,0.8668,0.8671,0.8772,0,0,0,0,0,0,0.892,0.8913,0.8929,0.887,0.8859,0.8862,0.8787,0.8773,0.8761,0.8751,0.8698,0.8687,0.8639,0.8645,0.8642,0.8672,0.8595,0.8661,0.8666,0.867,0.8765,0.8778,0.879,0,0,0,0,0,0.8922,0.8962,0.893,0.8925,0.8878,0.8865,0.8858,0.8801,0.8764,0.8779,0.8738,0.8689,0.8672,0.8647,0.8642,0.8673,0.8659,0.8664,0.867,0.876,0.8776,0.8789,0,0,0,0,0,0,0.9027,0.8953,0.8917,0.8939,0.8909,0.8847,0.8865,0.882,0.88,0.8792,0.8723,0.8712,0.8728,0.8701,0.8674,0.8711,0.8658,0.8663,0.8728,0.8742,0.8754,0.876,0.8594,0,0,0,0,0,0.9052,0.9047,0.8983,0.9008,0.8994,0.8933,0.8925,0.8883,0.8849,0.8836,0.8796,0.8766,0.8753,0.8746,0.8731,0.8761,0.8747,0.8779,0.8792,0.8802,0.8807,0.8819,0.8832,0.8691,0.8691,0.8691,0,0,0.9105,0.9064,0.9065,0.9028,0.8999,0.8996,0.8923,0.8922,0.8918,0.8836,0.8841,0.881,0.8772,0.879,0.8796,0.8768,0.8843,0.8809,0.8818,0.8817,0.8826,0.8839,0.8851,0.8695,0.8694,0.8694,0,0,0.9198,0.9167,0.9184,0.9156,0.9114,0.9072,0.9076,0.9021,0.8997,0.9,0.8938,0.8933,0.8913,0.8887,0.8872,0.8954,0.8907,0.8951,0.9014,0.9027,0.9038,0.9047,0.9075,0.9086,0.8956,0.8956,0.8957,0,0.9269,0.9261,0.9198,0.9201,0.9185,0.911,0.9125,0.9102,0.9058,0.9049,0.9018,0.899,0.8959,0.8969,0.8989,0.8979,0.8981,0.8956,0.9041,0.905,0.9058,0.9083,0.9094,0.8962,0.8961,0.8961,0.896,0,0.9349,0.9344,0.9362,0.9319,0.9306,0.9316,0.9255,0.9249,0.9208,0.917,0.9173,0.9133,0.9107,0.9107,0.9068,0.9111,0.9095,0.9054,0.8999,0.9078,0.91,0.911,0.897,0.8968,0.8966,0.8965,0,0,0.9507,0.9428,0.9435,0.9414,0.9361,0.9356,0.9361,0.9335,0.9331,0.9303,0.9305,0.9289,0.925,0.9232,0.919,0.92,0.9266,0.9157,0.9155,0.9178,0.9309,0.934,0.9352,0.9234,0.9236,0.9237,0.9312,0,0.9589,0.9593,0.9536,0.9556,0.955,0.9477,0.9482,0.9449,0.9413,0.9403,0.9363,0.9352,0.9302,0.929,0.9298,0.9256,0.9291,0.925,0.9235,0.9235,0.9246,0.9364,0.9397,0.947,0.932,0.9322,0.9323,0,0.9686,0.9662,0.9681,0.9625,0.962,0.9625,0.9595,0.9587,0.9548,0.9521,0.9501,0.9451,0.9452,0.94,0.94,0.9374,0.9364,0.9343,0.9344,0.934,0.9284,0.9362,0.9491,0.9502,0.9337,0.9336,0.9335,0,0.9798,0.9769,0.9776,0.9761,0.9696,0.9701,0.9674,0.9633,0.9621,0.9595,0.9586,0.9562,0.9548,0.953,0.9475,0.9443,0.9481,0.9425,0.9458,0.9459,0.9469,0.9469,0.9597,0.9464,0.9464,0.9464,0.9464,0,0.9895,0.991,0.9825,0.983,0.9843,0.9777,0.9792,0.9758,0.9722,0.9718,0.9654,0.9652,0.958,0.9569,0.9526,0.9532,0.9526,0.9504,0.9492,0.9509,0.9512,0.9502,0.9495,0.9467,0.9466,0.9466,0.9465,0,1.0022,0.9966,0.9968,0.9906,0.9891,0.9904,0.985,0.9851,0.9811,0.9807,0.9802,0.9738,0.9722,0.9666,0.9636,0.9607,0.9626,0.9604,0.9639,0.9631,0.9666,0.9663,0.9792,0.9804,0.9665,0.9667,0.9668,0,1.0087,1.0096,1.0035,1.0027,1.0003,0.9992,0.9978,0.9913,0.9902,0.9857,0.9864,0.9843,0.9822,0.98,0.9751,0.9728,0.9704,0.9751,0.9701,0.9717,0.9703,0.9703,0.9703,0.9762,0.9764,0.9765,0.9766,0,1.0209,1.0181,1.0163,1.0136,1.0121,1.0096,1.0068,1.0066,0.9993,0.9983,0.9966,0.995,0.9919,0.9898,0.9866,0.9839,0.9791,0.9782,0.9788,0.9806,0.9825,0.9813,0.9667,0.978,0.9778,0.9777,0.9777,0.9776,1.0306,1.031,1.0267,1.0249,1.022,1.0195,1.0192,1.0151,1.0135,1.0104,1.0067,1.0053,1.0013,0.9965,0.9941,0.9929,0.9903,0.9912,0.9914,0.9917,0.9925,0.9827,0.9923,0.9923,0.9923,0.9922,0.9922,0,1.0424,1.0392,1.0376,1.0338,1.0323,1.0278,1.0244,1.0235,1.0224,1.019,1.0171,1.015,1.0129,1.0078,1.0052,1.0052,1.0029,1.0048,1.0047,1.0041,0.9951,0.9947,1.0066,1.0066,1.0066,1.0066,1.0066,1.0066,1.0483,1.0486,1.0453,1.0441,1.0409,1.0394,1.0379,1.0354,1.0327,1.0306,1.0288,1.0254,1.0213,1.0183,1.0162,1.0147,1.0141,1.0166,1.0144,1.0061,1.0047,1.0034,1.0031,1.0165,1.0165,1.0235,1.0236,1.0236]},{"header":{"parameterUnit":"m.s-1","parameterCategory":1,"la1":30.2991,"la2":30.254,"lo1":-89.0895,"lo2":-89.0444,"dy":0.0017,"dx":0.0017,"nx":28,"ny":28,"refTime":"2025-07-17T21:00:00:Z","depth":0,"parameterNumber":3,"parameterNumberName":"V-component_of_WINDS"},"data":[0,0,0,0,0,0,0,0,0,0,0,0,0,0,0,0,0,0,0,0,0,0,0,0,0,0,0,0,0,0,0,0,0,0,0,0,0,0,0,0,0,0,0,0,0,0,0,0,0,0,0,0,0,0,0,0,0,0,2.4689,2.469,0,2.481,2.4811,2.4812,2.4747,2.4744,2.4741,2.4738,2.4866,2.4872,2.4878,0,0,0,0,0,0,0,0,0,0,0,0,0,2.4404,2.441,2.4689,2.469,2.4692,2.4809,2.4811,2.4813,2.4748,2.4744,2.474,2.4736,2.4864,2.4871,2.4879,0,0,0,0,0,0,0,0,0,0,0,0,0,2.4527,2.4412,2.4688,2.4673,2.4673,2.4809,2.4811,2.4813,2.4749,2.4744,2.4739,2.4734,2.4861,2.4871,2.488,2.5039,0,0,2.491,2.4914,0,0,0,0,0,0,0,0,2.452,2.4537,2.4674,2.4675,2.4675,2.4758,2.4758,2.4889,2.475,2.472,2.4738,2.4732,2.4834,2.4846,2.488,2.5045,2.505,2.4911,2.4917,2.4921,2.4923,0,0,0,0,0,0,0,2.4512,2.4532,2.4737,2.4676,2.4677,2.4662,2.4673,2.4782,2.4804,2.4722,2.4718,2.4733,2.4833,2.487,2.4882,2.5052,2.491,2.4919,2.4925,2.4929,2.5353,2.5358,0,0,0,0,0,0,2.4504,2.4525,2.4733,2.474,2.4584,2.4671,2.4684,2.4737,2.4802,2.4807,2.4737,2.4729,2.4856,2.4871,2.4886,2.5076,2.4921,2.493,2.4935,2.5347,2.5354,2.536,0,0,0,0,0,0,2.4498,2.4523,2.4728,2.4632,2.4656,2.4681,2.474,2.4742,2.4778,2.4813,2.4817,2.4771,2.4853,2.4873,2.5001,2.508,2.4934,2.4943,2.5341,2.5349,2.5357,2.5457,0,0,0,0,0,0,2.449,2.4521,2.4581,2.4633,2.4662,2.484,2.4745,2.4747,2.4795,2.4786,2.4846,2.4851,2.485,2.4987,2.501,2.509,2.4951,2.5334,2.5345,2.5354,2.5447,2.5468,2.5485,0,0,0,0,0,2.448,2.4606,2.4585,2.461,2.4737,2.4845,2.4861,2.4857,2.4801,2.4862,2.4884,2.4849,2.5067,2.5,2.5027,2.5111,2.5329,2.5342,2.5353,2.5438,2.5464,2.5485,0,0,0,0,0,0,2.4565,2.4613,2.4589,2.4736,2.4786,2.4833,2.491,2.4884,2.4953,2.4942,2.4935,2.4949,2.5082,2.5109,2.5034,2.5267,2.5189,2.5207,2.5245,2.5269,2.5288,2.528,2.4959,0,0,0,0,0,2.46,2.4682,2.472,2.4845,2.4871,2.4887,2.4933,2.4925,2.4978,2.5,2.5031,2.5085,2.5165,2.5218,2.5294,2.545,2.5462,2.552,2.554,2.5555,2.5572,2.5655,2.5682,2.54,2.54,2.5399,0,0,2.4675,2.4711,2.4763,2.4863,2.4901,2.4987,2.4905,2.5,2.5064,2.5014,2.5137,2.5162,2.5221,2.5364,2.5428,2.539,2.5652,2.5571,2.5583,2.5591,2.5671,2.5697,2.5721,2.5408,2.5407,2.5405,0,0,2.4854,2.489,2.4998,2.5037,2.5095,2.5104,2.513,2.5181,2.5195,2.5317,2.5281,2.5357,2.5496,2.554,2.558,2.5773,2.5744,2.5798,2.59,2.5982,2.6004,2.6023,2.6093,2.6118,2.5814,2.5814,2.5814,0,2.494,2.5067,2.5057,2.5154,2.5199,2.5155,2.5265,2.5304,2.5385,2.5417,2.5373,2.5545,2.5582,2.5734,2.578,2.5814,2.5844,2.5792,2.6001,2.6021,2.6039,2.6105,2.6131,2.5821,2.582,2.5819,2.5819,0,2.517,2.5258,2.5339,2.5415,2.5469,2.5572,2.5578,2.5634,2.5621,2.5634,2.5759,2.5801,2.5885,2.592,2.5909,2.607,2.6044,2.6001,2.5923,2.6072,2.6134,2.616,2.583,2.5827,2.5826,2.5824,0,0,2.5409,2.5477,2.5507,2.554,2.56,2.5669,2.5769,2.5849,2.5897,2.5953,2.6038,2.6155,2.6114,2.616,2.6153,2.6225,2.6375,2.6172,2.6174,2.6209,2.6556,2.6589,2.6619,2.6355,2.636,2.6364,2.6551,0,2.5593,2.5768,2.576,2.5924,2.6005,2.5964,2.6052,2.6098,2.6113,2.6185,2.6202,2.6285,2.6225,2.6252,2.6321,2.6343,2.6445,2.6329,2.6435,2.6439,2.6423,2.6651,2.6687,2.6862,2.6575,2.6579,2.6582,0,2.5832,2.5894,2.6065,2.6111,2.6145,2.6224,2.6296,2.6364,2.6416,2.6422,2.6472,2.6453,2.6555,2.6473,2.6614,2.6535,2.6578,2.6595,2.6602,2.6613,2.6521,2.6669,2.6917,2.6944,2.662,2.6617,2.6615,0,2.599,2.6116,2.6235,2.6265,2.6322,2.6378,2.6404,2.6451,2.6499,2.6561,2.6592,2.6667,2.6708,2.6767,2.6768,2.6708,2.6911,2.6829,2.692,2.692,2.6966,2.6964,2.7226,2.6992,2.6992,2.6991,2.6991,0,2.6197,2.6304,2.6306,2.6379,2.6497,2.6487,2.6605,2.6626,2.6667,2.6744,2.6713,2.6786,2.6783,2.6858,2.686,2.6977,2.6995,2.7004,2.7003,2.7007,2.7006,2.7036,2.7025,2.6998,2.6997,2.6995,2.6994,0,2.6394,2.64,2.6526,2.6568,2.6581,2.6667,2.6703,2.6773,2.6783,2.6881,2.6904,2.6922,2.7008,2.7014,2.7114,2.7115,2.7257,2.7243,2.724,2.7238,2.7328,2.732,2.762,2.7659,2.7399,2.7401,2.7403,0,2.6527,2.6607,2.6657,2.6705,2.6734,2.6813,2.6861,2.6854,2.6905,2.6969,2.7031,2.7113,2.7179,2.7318,2.7341,2.7417,2.7405,2.7505,2.7417,2.7418,2.7408,2.7403,2.7412,2.7523,2.7526,2.7528,2.753,0,2.6761,2.676,2.6829,2.6899,2.6956,2.7012,2.7064,2.7106,2.7105,2.7164,2.725,2.7301,2.7402,2.7484,2.7558,2.7586,2.7559,2.7557,2.7582,2.7588,2.7583,2.7588,2.7288,2.7551,2.7549,2.7547,2.7546,2.7545,2.6931,2.7,2.7045,2.7123,2.7161,2.7209,2.7276,2.7295,2.7366,2.7446,2.7438,2.7534,2.7582,2.7678,2.7712,2.7787,2.7754,2.779,2.78,2.7809,2.7819,2.7569,2.7801,2.78,2.7799,2.7799,2.7799,0,2.7164,2.7191,2.7262,2.7334,2.7396,2.7361,2.7416,2.7471,2.7555,2.7601,2.7665,2.7764,2.7844,2.7871,2.7949,2.8004,2.7993,2.8024,2.8021,2.8028,2.7844,2.7815,2.8032,2.8032,2.8032,2.8032,2.8031,2.8031,2.7293,2.7408,2.7412,2.7545,2.7571,2.7663,2.7697,2.7742,2.7779,2.789,2.7955,2.7972,2.8011,2.809,2.8162,2.8168,2.8198,2.8235,2.8237,2.8065,2.8041,2.8019,2.7991,2.8242,2.8242,2.8414,2.8416,2.8417]}]]